Дюрбельджин

Kyrgyzstan     41˚16′01″N   74˚57′00″E
temp.,
°C
wind,
m/s
gust,
m/s
humid.,
%
clouds,
%
prec.,
mm/h
press.,
hPa
HPBL,
m
1 december, tue
tue100:00−12˚ssw005887 0.0 103421
03:00−13˚wsw1158100 0.0 103121
06:00−13˚ese115798 0.0 103121
09:00−12˚e015163 0.0 103021
12:00−7˚nne114054 0.0 1029210
15:00−6˚wnw0142100 0.0 1028174
18:00−8˚n1153100 0.0 103121
21:00−8˚sse1154100 0.0 103221
2 december, wed
wed200:00−7˚e1150100 0.1 103321
03:00−7˚w0153100 0.1 103221
06:00−7˚ne1157100 0.3 103321
09:00−7˚ene1165100 0.0 103358
12:00−5˚nne2169100 0.0 1031255
15:00−3˚n1171100 0.0 1028246
18:00−6˚ese118079 0.0 102921
21:00−6˚se1176100 0.0 103021
3 december, thu
thu300:00−5˚ene1176100 0.0 102921
03:00−7˚e1179100 0.0 102821
06:00−7˚e118097 0.0 102921
09:00−6˚ese118195 0.0 103021
12:00−3˚ne227993 0.2 1027270
15:00−2˚n1176100 0.0 1025282
18:00−5˚ese0184100 0.0 102721
21:00−5˚se0185100 0.0 102721
4 december, fri
fri400:00−6˚sse1184100 0.0 102521
03:00−6˚se1184100 0.0 102321
06:00−6˚s1182100 0.0 102221
09:00−5˚se1193100 0.3 102225
12:00−4˚n1195100 1.5 1021129
15:00−2˚nnw1187100 0.3 1021249
18:00−5˚s1192100 0.3 102321
21:00−4˚s2288100 0.1 102621
5 december, sat
sat500:00−6˚s118295 0.2 102721
03:00−6˚s117791 0.1 102721
06:00−8˚s117479 0.2 102721
09:00−8˚s116731 0.1 102826
12:00−5˚nnw117420 0.1 1025200
15:00−4˚nnw11730 0.0 1023262
18:00−7˚sse118224 0.0 102521
21:00−7˚sse1270100 0.0 102721